Regional Weather Roundup
Issued by NWS State College, PA

Home | Current Version | Previous Version | Graphics & Text | Print | Product List | Glossary On
Versions: 1 2 3 4 5 6 7 8 9 10 11 12 13 14 15 16 17 18 19 20 21 22 23 24 25 26 27 28 29 30 31 32 33 34 35 36 37 38 39 40 41 42 43 44 45 46 47 48 49 50
000
ASUS41 KCTP 301010
RWRCTP

REGIONAL WEATHER ROUNDUP
NATIONAL WEATHER SERVICE STATE COLLEGE PA
600 AM EDT SUN APR 30 2017

Note: "fair" indicates few or no clouds below 12,000 feet with no
significant weather and/or obstructions to visibility.

* = STATION THAT DOES NOT REPORT PRECIPITATION /E.G. RAIN...SNOW...ETC/
    THUNDER OR FOG.

PAZ002>004-007>009-013>016-020>023-029>032-301100-
WESTERN PENNSYLVANIA

CITY           SKY/WX    TMP DP  RH WIND       PRES   REMARKS
ERIE           CLOUDY    47  42  83 NE12      30.06F
MEADVILLE      CLOUDY    53  50  89 E8        30.02F
FRANKLIN*      CLOUDY    54  48  82 E6        30.06F
NEW CASTLE     FAIR      55  54  96 CALM      30.02F
BEAVER COUNTY  NOT AVBL
BUTLER*        PTCLDY    59  55  88 SE8G20    30.03F
PITTSBURGH INT LGT RAIN  59  58  96 SE7       30.02F
PITTSBURGH     PTCLDY    60  56  86 E7        30.03S
INDIANA*       CLOUDY    61  57  88 E10       30.11S
LATROBE        PTCLDY    64  63  94 CALM      30.05F
WASHINGTON CO* MOCLDY    57  55  94 CALM      30.06S
$$

PAZ004>006-010>012-017>019-024>028-033>037-041-042-045-046-049>053-301100-
CENTRAL PENNSYLVANIA

CITY           SKY/WX    TMP DP  RH WIND       PRES   REMARKS
BRADFORD       CLOUDY    47  46  97 E8        30.12R
DUBOIS         CLEAR     53  50  89 E7        30.10R
CLEARFIELD     MOCLDY    54  48  80 E7        30.15R
JOHNSTOWN      MOCLDY    57  57 100 VRB3      30.12R
ALTOONA        CLOUDY    60  58  92 NE5       30.15R
STATE COLLEGE  MOCLDY    54  50  87 NE7       30.15R
WILLIAMSPORT   MOCLDY    54  45  71 CALM      30.15S
SELINSGROVE    MOCLDY    56  47  71 E8        30.16R
FT INDIANTOWN  CLOUDY    59  52  77 NE6       30.14R
CAPITAL CITY   CLOUDY    64  53  67 E9        30.13R
HARRISBURG     CLOUDY    63  55  75 E6        30.12R
YORK           CLOUDY    64  59  83 E7        30.12R
$$

PAZ038>040-043-044-047-048-054-055-060>062-067>071-301100-
EASTERN PENNSYLVANIA

CITY           SKY/WX    TMP DP  RH WIND       PRES   REMARKS
SCRANTON       CLOUDY    51  38  60 E5        30.17S
MOUNT POCONO   CLEAR     48  38  68 CALM      30.17R
ALLENTOWN      CLEAR     55  44  66 NE9       30.16R
QUAKERTOWN*    MOSUNNY   57  48  72 NE3       30.17R
READING        CLOUDY    61  53  75 NE5       30.14R
LANCASTER      CLOUDY    63  58  83 E7        30.13R
COATESVILLE    MOSUNNY   63  55  77 E10G17    30.15R
POTTSTOWN      CLOUDY    59  52  77 NE6       30.16R
BLUE BELL      CLOUDY    61  50  67 E6        30.17R
DOYLESTOWN     PTCLDY    58  49  72 NE3       30.16R
WILLOW GROVE   NOT AVBL
NORTH PHILA    PTCLDY    62  50  64 NE6       30.17R
PHILADELPHIA   MOCLDY    65  54  67 E8        30.14S
$$



USA.gov is the U.S. government's official web portal to all federal, state and local government web resources and services.